• In Uzbekistan
  • List of Countries
  • For 7 days
  • Water Temperature
  • Satellite Maps
  • Weather Map
  • Weather Widgets
  • user-avatar
    Login

    Hourly Weather Lankaran

    Today, 29 June, Thursday

    Time Temperature Precipitation Wind Pressure Humidity
    00:00 +18°C° 0 mm 1 mps 632 mmHg 86%
    01:00 +18°C° 0 mm 1 mps 632 mmHg 87%
    02:00 +16°C° 0 mm 1 mps 631 mmHg 87%
    03:00 +16°C° 0 mm 1 mps 631 mmHg 88%
    04:00 +17°C° 0 mm 2 mps 632 mmHg 84%
    05:00 +18°C° 0 mm 2 mps 632 mmHg 80%
    06:00 +19°C° 0 mm 2 mps 633 mmHg 76%
    07:00 +21°C° 0 mm 2 mps 633 mmHg 67%
    08:00 +23°C° 0 mm 2 mps 634 mmHg 58%
    09:00 +25°C° 0 mm 3 mps 634 mmHg 49%
    10:00 +26°C° 0 mm 3 mps 634 mmHg 44%
    11:00 +27°C° 0 mm 3 mps 634 mmHg 39%
    12:00 +28°C° 0 mm 3 mps 634 mmHg 34%
    13:00 +28°C° 0 mm 4 mps 634 mmHg 33%
    14:00 +28°C° 0 mm 4 mps 634 mmHg 32%
    15:00 +28°C° 0 mm 4 mps 633 mmHg 31%
    16:00 +27°C° 0 mm 3 mps 633 mmHg 34%
    17:00 +25°C° 0 mm 3 mps 633 mmHg 37%
    18:00 +24°C° 0 mm 2 mps 632 mmHg 40%
    19:00 +21°C° 0 mm 2 mps 632 mmHg 45%
    20:00 +20°C° 0 mm 1 mps 632 mmHg 49%
    21:00 +18°C° 0 mm 1 mps 632 mmHg 54%
    22:00 +16°C° 0 mm 1 mps 632 mmHg 51%
    23:00 +16°C° 0 mm 1 mps 631 mmHg 48%

    Tomorrow, 30 June, Friday

    Time Temperature Precipitation Wind Pressure Humidity
    00:00 +15°C° 0 mm 1 mps 631 mmHg 45%
    01:00 +15°C° 0 mm 1 mps 631 mmHg 44%
    02:00 +14°C° 0 mm 1 mps 631 mmHg 42%
    03:00 +14°C° 0 mm 2 mps 631 mmHg 40%
    04:00 +15°C° 0 mm 2 mps 631 mmHg 39%
    05:00 +17°C° 0 mm 2 mps 632 mmHg 38%
    06:00 +19°C° 0 mm 2 mps 633 mmHg 36%
    07:00 +20°C° 0 mm 2 mps 633 mmHg 31%
    08:00 +23°C° 0 mm 2 mps 634 mmHg 25%
    09:00 +25°C° 0 mm 3 mps 634 mmHg 20%
    10:00 +26°C° 0 mm 4 mps 634 mmHg 20%
    11:00 +27°C° 0 mm 4 mps 634 mmHg 20%
    12:00 +27°C° 0 mm 5 mps 635 mmHg 20%
    13:00 +27°C° 0 mm 5 mps 634 mmHg 22%
    14:00 +27°C° 0 mm 5 mps 634 mmHg 24%
    15:00 +27°C° 0 mm 5 mps 634 mmHg 26%
    16:00 +25°C° 0 mm 5 mps 634 mmHg 31%
    17:00 +23°C° 0 mm 4 mps 633 mmHg 37%
    18:00 +21°C° 0 mm 4 mps 633 mmHg 42%
    19:00 +19°C° 0 mm 3 mps 633 mmHg 50%
    20:00 +17°C° 0 mm 3 mps 633 mmHg 59%
    21:00 +15°C° 0 mm 2 mps 633 mmHg 67%
    22:00 +14°C° 0 mm 2 mps 633 mmHg 65%
    23:00 +14°C° 0 mm 2 mps 633 mmHg 63%

    Day after tomorrow, 1 July, Saturday

    Time Temperature Precipitation Wind Pressure Humidity
    00:00 +12°C° 0 mm 3 mps 633 mmHg 61%
    01:00 +12°C° 0 mm 3 mps 633 mmHg 59%
    02:00 +12°C° 0 mm 3 mps 633 mmHg 58%
    03:00 +12°C° 0 mm 3 mps 633 mmHg 56%
    04:00 +13°C° 0 mm 3 mps 633 mmHg 52%
    05:00 +16°C° 0 mm 3 mps 634 mmHg 49%
    06:00 +17°C° 0 mm 3 mps 634 mmHg 45%
    07:00 +19°C° 0 mm 3 mps 635 mmHg 40%
    08:00 +21°C° 0 mm 4 mps 636 mmHg 36%
    09:00 +23°C° 0 mm 4 mps 636 mmHg 31%
    10:00 +25°C° 0 mm 4 mps 636 mmHg 29%
    11:00 +26°C° 0 mm 5 mps 636 mmHg 27%
    12:00 +27°C° 0 mm 5 mps 636 mmHg 26%
    13:00 +27°C° 0 mm 5 mps 636 mmHg 27%
    14:00 +27°C° 0 mm 5 mps 636 mmHg 29%
    15:00 +27°C° 0 mm 5 mps 635 mmHg 30%
    16:00 +25°C° 0 mm 4 mps 635 mmHg 35%
    17:00 +23°C° 0 mm 4 mps 635 mmHg 39%
    18:00 +22°C° 0 mm 3 mps 635 mmHg 43%
    19:00 +20°C° 0 mm 3 mps 634 mmHg 51%
    20:00 +17°C° 0 mm 2 mps 634 mmHg 58%
    21:00 +15°C° 0 mm 2 mps 634 mmHg 65%
    22:00 +15°C° 0 mm 2 mps 634 mmHg 61%
    23:00 +15°C° 0 mm 2 mps 634 mmHg 56%

    2 July, Sunday

    Time Temperature Precipitation Wind Pressure Humidity
    00:00 +15°C° 0 mm 1 mps 634 mmHg 52%
    01:00 +15°C° 0 mm 1 mps 634 mmHg 50%
    02:00 +15°C° 0 mm 1 mps 633 mmHg 48%
    03:00 +15°C° 0 mm 2 mps 633 mmHg 47%
    04:00 +16°C° 0 mm 1 mps 634 mmHg 45%
    05:00 +19°C° 0 mm 1 mps 634 mmHg 44%
    06:00 +20°C° 0 mm 1 mps 635 mmHg 43%
    07:00 +21°C° 0 mm 2 mps 635 mmHg 38%
    08:00 +24°C° 0 mm 2 mps 636 mmHg 33%
    09:00 +26°C° 0 mm 3 mps 636 mmHg 29%
    10:00 +27°C° 0 mm 3 mps 636 mmHg 28%
    11:00 +28°C° 0 mm 3 mps 636 mmHg 26%
    12:00 +29°C° 0 mm 4 mps 636 mmHg 25%
    13:00 +29°C° 0 mm 4 mps 635 mmHg 25%
    14:00 +30°C° 0 mm 4 mps 635 mmHg 25%
    15:00 +30°C° 0 mm 4 mps 634 mmHg 26%
    16:00 +28°C° 0 mm 3 mps 634 mmHg 29%
    17:00 +27°C° 0 mm 3 mps 634 mmHg 33%
    18:00 +26°C° 0 mm 2 mps 633 mmHg 36%
    19:00 +23°C° 0 mm 2 mps 633 mmHg 42%
    20:00 +20°C° 0 mm 2 mps 632 mmHg 48%
    21:00 +18°C° 0 mm 1 mps 632 mmHg 55%
    22:00 +19°C° 0.1 mm 1 mps 632 mmHg 53%
    23:00 +19°C° 0.1 mm 1 mps 632 mmHg 51%

    3 July, Monday

    Time Temperature Precipitation Wind Pressure Humidity
    00:00 +19°C° 0.1 mm 1 mps 632 mmHg 49%
    01:00 +19°C° 0.1 mm 1 mps 632 mmHg 51%
    02:00 +18°C° 0.1 mm 1 mps 631 mmHg 53%
    03:00 +18°C° 0.1 mm 1 mps 631 mmHg 55%
    04:00 +19°C° 0 mm 1 mps 632 mmHg 52%
    05:00 +19°C° 0 mm 0 mps 632 mmHg 50%
    06:00 +20°C° 0 mm 0 mps 633 mmHg 48%
    07:00 +24°C° 0 mm 1 mps 633 mmHg 41%
    08:00 +26°C° 0 mm 1 mps 634 mmHg 34%
    09:00 +28°C° 0 mm 2 mps 634 mmHg 27%
    10:00 +29°C° 0 mm 2 mps 634 mmHg 25%
    11:00 +30°C° 0 mm 2 mps 634 mmHg 23%
    12:00 +31°C° 0 mm 2 mps 634 mmHg 21%
    13:00 +31°C° 0 mm 3 mps 633 mmHg 22%
    14:00 +33°C° 0 mm 3 mps 633 mmHg 22%
    15:00 +33°C° 0 mm 3 mps 633 mmHg 23%
    16:00 +30°C° 0 mm 3 mps 632 mmHg 27%
    17:00 +29°C° 0 mm 3 mps 632 mmHg 30%
    18:00 +28°C° 0 mm 2 mps 632 mmHg 34%
    19:00 +26°C° 0 mm 2 mps 631 mmHg 39%
    20:00 +24°C° 0 mm 2 mps 631 mmHg 44%
    21:00 +21°C° 0 mm 1 mps 631 mmHg 48%
    22:00 +20°C° 0.1 mm 2 mps 630 mmHg 47%
    23:00 +20°C° 0.1 mm 2 mps 630 mmHg 46%

    4 July, Tuesday

    Time Temperature Precipitation Wind Pressure Humidity
    00:00 +20°C° 0.1 mm 2 mps 630 mmHg 45%
    01:00 +19°C° 0.1 mm 2 mps 630 mmHg 46%
    02:00 +20°C° 0.1 mm 1 mps 630 mmHg 47%
    03:00 +19°C° 0.1 mm 1 mps 630 mmHg 48%
    04:00 +21°C° 0.1 mm 1 mps 630 mmHg 46%
    05:00 +22°C° 0.1 mm 1 mps 631 mmHg 44%
    06:00 +24°C° 0.1 mm 1 mps 631 mmHg 41%
    07:00 +26°C° 0 mm 1 mps 632 mmHg 35%
    08:00 +28°C° 0 mm 1 mps 632 mmHg 28%
    09:00 +30°C° 0 mm 1 mps 633 mmHg 22%
    10:00 +31°C° 0 mm 2 mps 633 mmHg 21%
    11:00 +32°C° 0 mm 2 mps 633 mmHg 20%
    12:00 +34°C° 0 mm 2 mps 633 mmHg 20%
    13:00 +34°C° 0 mm 2 mps 632 mmHg 20%
    14:00 +34°C° 0 mm 3 mps 632 mmHg 21%
    15:00 +34°C° 0 mm 3 mps 632 mmHg 21%
    16:00 +33°C° 0 mm 3 mps 632 mmHg 25%
    17:00 +31°C° 0 mm 2 mps 631 mmHg 29%
    18:00 +30°C° 0 mm 2 mps 631 mmHg 32%
    19:00 +28°C° 0 mm 2 mps 631 mmHg 36%
    20:00 +26°C° 0 mm 2 mps 630 mmHg 41%
    21:00 +23°C° 0 mm 2 mps 630 mmHg 45%
    22:00 +23°C° 0 mm 2 mps 630 mmHg 43%
    23:00 +23°C° 0 mm 2 mps 630 mmHg 42%
    Show more